DW8618 Nerja ES current weather conditions

sailwx.info

Wind from 328 at 0 knots gusting 2

Air temperature 21.7° C
Dewpoint 13.6° C

Last reported at 2014-Sep-18 22:45 UTC.
Time now 2014-Sep-18 23:43 UTC

Location: N 36°46' W 003°52'.
View on Google Maps.

See reports from other nearby stations

  
Tides and Currents Weather Stations Pressure Air Temp Water Temp Dewpoint Dewpoint Depression Visibility Wind Speed Wind Dir Waves Ship Positions
date/time (UTC)wind fromknots sea level pressurealtimeterstation pressurevisibilityair tempwater tempwave heightnotes
2014-Sep-18 22:45 328 0 gusting 2 21.7
2014-Sep-18 22:30 339 22.2
2014-Sep-18 22:15 311 1 gusting 6 21.7
2014-Sep-18 22:01 331 22.2
2014-Sep-18 21:45 331 22.2
2014-Sep-18 21:30 330 22.2
2014-Sep-18 21:15 328 22.2
2014-Sep-18 21:01 331 22.8
2014-Sep-18 20:45 348 22.8
2014-Sep-18 20:30 343 0 gusting 3 22.8
2014-Sep-18 20:15 338 22.2
2014-Sep-18 20:01 329 22.2
2014-Sep-18 19:45 328 22.2
2014-Sep-18 19:30 329 21.7
2014-Sep-18 19:15 323 21.1
2014-Sep-18 19:01 338 21.1
2014-Sep-18 18:45 276 20.6
2014-Sep-18 18:30 276 20.6
2014-Sep-18 18:15 221 20.6
2014-Sep-18 18:01 236 21.1
2014-Sep-18 17:45 203 21.7
2014-Sep-18 17:30 203 21.7
2014-Sep-18 17:15 186 22.8
2014-Sep-18 17:01 241 22.2
2014-Sep-18 16:45 163 22.2
2014-Sep-18 16:30 169 23.3
2014-Sep-18 16:15 196 23.3
2014-Sep-18 16:01 076 22.2
2014-Sep-18 15:45 149 22.2
2014-Sep-18 15:30 168 22.8
2014-Sep-18 15:15 165 1 gusting 5 22.8
2014-Sep-18 15:01 221 22.8
2014-Sep-18 14:45 148 1 gusting 6 22.8
2014-Sep-18 14:30 190 2 gusting 6 25.6
2014-Sep-18 14:15 213 2 gusting 8 25.6
2014-Sep-18 14:01 220 3 gusting 9 26.1
2014-Sep-18 13:45 157 2 gusting 7 26.1
2014-Sep-18 13:30 226 2 gusting 11 25.6
2014-Sep-18 13:15 205 4 gusting 9 26.7
2014-Sep-18 13:01 165 2 gusting 10 27.2
2014-Sep-18 12:45 206 3 gusting 10 27.8
2014-Sep-18 12:30 215 4 gusting 11 27.8
2014-Sep-18 12:15 275 4 gusting 12 28.3
2014-Sep-18 12:01 284 4 gusting 12 27.2
2014-Sep-18 11:45 251 3 gusting 10 26.1
2014-Sep-18 11:30 227 3 gusting 10 26.1
2014-Sep-18 11:15 250 2 gusting 8 26.7
2014-Sep-18 11:01 257 1 gusting 10 27.2
2014-Sep-18 10:45 207 1 gusting 6 25.6
2014-Sep-18 10:30 273 23.9
2014-Sep-18 10:15 209 22.8
2014-Sep-18 10:01 216 23.3
2014-Sep-18 09:45 223 23.3
2014-Sep-18 09:30 191 23.3
2014-Sep-18 09:15 191 1 gusting 5 22.2
2014-Sep-18 09:01 222 0 gusting 4 23.3
2014-Sep-18 08:45 220 23.3
2014-Sep-18 08:30 220 0 gusting 4 23.3
2014-Sep-18 08:15 222 0 gusting 3 23.3
2014-Sep-18 08:01 267 24.4
2014-Sep-18 07:45 355 23.3
2014-Sep-18 07:30 360 21.7
2014-Sep-18 07:15 360 20.6
2014-Sep-18 07:01 360 0 gusting 3 20.0
2014-Sep-18 06:45 360 19.4
2014-Sep-18 06:30 005 18.9
2014-Sep-18 06:15 015 19.4
2014-Sep-18 06:01 015 19.4
2014-Sep-18 05:45 013 19.4
2014-Sep-18 05:30 005 19.4
2014-Sep-18 05:15 350 19.4
2014-Sep-18 05:01 349 19.4
2014-Sep-18 04:45 348 20.0
2014-Sep-18 04:30 348 20.0
2014-Sep-18 04:15 348 20.0
2014-Sep-18 04:01 324 2 gusting 4 20.0
2014-Sep-18 03:45 316 3 gusting 6 19.4
2014-Sep-18 03:30 339 1 gusting 4 18.9
2014-Sep-18 03:15 347 19.4
2014-Sep-18 03:01 347 20.0
2014-Sep-18 02:45 347 20.0
2014-Sep-18 02:30 347 20.0
2014-Sep-18 02:15 347 20.6
2014-Sep-18 02:01 347 21.1
2014-Sep-18 01:45 346 21.1
2014-Sep-18 01:30 344 21.1
2014-Sep-18 01:15 348 20.6
2014-Sep-18 01:01 350 1 gusting 3 20.6
2014-Sep-18 00:45 013 21.1
2014-Sep-18 00:30 013 21.7
2014-Sep-18 00:15 013 21.7
2014-Sep-18 00:01 013 21.7
2014-Sep-17 23:45 355 21.7
2014-Sep-17 23:30 348 21.1
2014-Sep-17 23:15 327 0 gusting 3 21.1
2014-Sep-17 23:01 329 21.1
2014-Sep-17 22:45 329 21.1
2014-Sep-17 22:30 329 21.1
2014-Sep-17 22:15 331 21.1
2014-Sep-17 22:01 164 20.6
2014-Sep-17 21:45 164 20.6
2014-Sep-17 21:30 164 20.6
2014-Sep-17 21:15 164 20.6
2014-Sep-17 21:01 166 20.6
2014-Sep-17 20:45 167 20.6
2014-Sep-17 20:30 161 21.1
2014-Sep-17 20:15 100 21.1
2014-Sep-17 20:01 215 21.1
2014-Sep-17 19:45 344 21.1
2014-Sep-17 19:30 211 21.1
2014-Sep-17 19:15 211 21.1
2014-Sep-17 19:01 212 21.7
2014-Sep-17 18:45 212 22.2
2014-Sep-17 18:30 212 22.8
2014-Sep-17 18:15 211 22.8
2014-Sep-17 18:01 316 23.3
2014-Sep-17 17:45 253 23.9
2014-Sep-17 17:30 248 0 gusting 5 23.9
2014-Sep-17 17:15 246 23.9
2014-Sep-17 17:01 213 0 gusting 6 24.4
2014-Sep-17 16:45 233 0 gusting 4 25.0
2014-Sep-17 16:30 241 26.1
2014-Sep-17 16:15 227 25.6
2014-Sep-17 16:01 213 26.7
2014-Sep-17 15:45 293 26.7
2014-Sep-17 15:30 278 3 gusting 6 26.7
2014-Sep-17 15:15 005 3 gusting 10 25.6
2014-Sep-17 15:01 300 2 gusting 13 25.0
2014-Sep-17 14:45 269 3 gusting 11 24.4
2014-Sep-17 14:30 288 1 gusting 11 23.9
2014-Sep-17 14:15 328 6 gusting 15 23.9
2014-Sep-17 14:01 286 1 gusting 14 24.4
2014-Sep-17 13:45 254 2 gusting 16 24.4
2014-Sep-17 13:30 250 1 gusting 8 25.0
2014-Sep-17 13:15 267 25.0
2014-Sep-17 13:01 285 0 gusting 9 25.0
2014-Sep-17 12:45 292 25.0
2014-Sep-17 12:30 333 0 gusting 6 25.0
2014-Sep-17 12:15 311 2 gusting 10 24.4
2014-Sep-17 12:01 333 6 gusting 13 23.9
2014-Sep-17 11:45 302 6 gusting 13 23.9
2014-Sep-17 11:30 297 7 gusting 20 24.4
2014-Sep-17 11:15 256 8 gusting 19 25.0
2014-Sep-17 11:01 255 8 gusting 16 25.0
2014-Sep-17 10:45 236 1 gusting 13 26.1
2014-Sep-17 10:30 265 3 gusting 11 25.6
2014-Sep-17 10:15 240 6 gusting 16 26.1
2014-Sep-17 10:01 236 4 gusting 15 26.1
2014-Sep-17 09:45 331 5 gusting 11 26.7
2014-Sep-17 09:30 320 4 gusting 8 26.1
2014-Sep-17 09:15 283 3 gusting 12 26.1
2014-Sep-17 09:01 298 6 gusting 15 25.6
2014-Sep-17 08:30 292 2 gusting 6 24.4
2014-Sep-17 08:15 292 4 gusting 6 23.3
2014-Sep-17 08:01 290 2 gusting 6 23.3
2014-Sep-17 07:45 263 22.8
2014-Sep-17 07:30 277 0 gusting 2 22.2
2014-Sep-17 07:15 312 22.2
2014-Sep-17 07:01 313 2 gusting 5 22.2
2014-Sep-17 06:45 320 21.7
2014-Sep-17 06:30 323 21.7
2014-Sep-17 06:15 310 21.7
2014-Sep-17 06:01 329 21.7
2014-Sep-17 05:45 324 2 gusting 4 21.7
2014-Sep-17 05:30 277 21.7
2014-Sep-17 05:15 329 21.1
2014-Sep-17 05:01 329 21.1
2014-Sep-17 04:45 329 21.7
2014-Sep-17 04:30 246 21.7
2014-Sep-17 04:15 242 21.7
2014-Sep-17 04:01 242 21.7
2014-Sep-17 03:45 242 22.2
2014-Sep-17 03:30 238 22.8
2014-Sep-17 03:15 266 0 gusting 4 22.8
2014-Sep-17 03:01 350 0 gusting 7 22.8
2014-Sep-17 02:45 010 3 gusting 8 22.2
2014-Sep-17 02:30 005 22.2
2014-Sep-17 02:15 327 0 gusting 6 22.2
2014-Sep-17 02:01 321 0 gusting 4 21.7
2014-Sep-17 01:45 331 3 gusting 6 21.7
2014-Sep-17 01:30 323 0 gusting 4 22.2
2014-Sep-17 01:15 305 22.2
2014-Sep-17 01:01 327 2 gusting 6 22.8
2014-Sep-17 00:45 298 22.2
2014-Sep-17 00:30 304 1 gusting 4 22.2
2014-Sep-17 00:15 340 0 gusting 4 22.8
2014-Sep-17 00:01 308 3 gusting 9 23.3
2014-Sep-16 23:45 306 1 gusting 6 23.3
2014-Sep-16 23:30 301 22.8
2014-Sep-16 23:15 291 22.8
2014-Sep-16 23:01 290 22.8